Presure
123 132 117 164 112 111 108 125 128 98 118 121 153 184 236 168 373 220 445 508 488 480 481 457 437 435 460 479 402 330 343 293 307 292 285 287 301 273 269 258 221 228 225 209 194 170 211
135 140 139 153 102 129 141 115 144 129 122 145 126 242 215 150 369 366 368 496 484 469 477 461 433 424 453 467 490 340 321 318 281 283 285 305 280 277 269 266 235 248 257 213 200 185 183
113 132 140 159 162 128 151 110 152 109 119 142 125 144 191 318 365 367 362 497 481 463 460 456 453 454 451 437 459 373 316 318 292 270 289 295 276 279 321 265 294 223 265 237 208 194 170
103 117 144 131 132 122 123 94 110 119 158 112 172 180 143 259 368 358 352 385 491 474 470 440 446 471 459 441 432 389 316 311 297 280 268 274 284 299 302 272 266 302 324 251 217 199 187
117 136 137 137 158 132 102 108 129 123 118 140 167 122 245 232 348 359 343 356 447 478 473 447 444 455 443 457 433 433 330 308 294 278 264 293 294 300 319 274 269 306 266 263 244 210 198
115 133 141 119 148 118 113 120 190 104 121 136 150 180 291 307 306 354 346 346 397 452 476 485 472 459 422 399 383 433 336 308 289 283 270 264 301 302 300 319 263 300 297 260 226 218 197
120 135 135 128 150 140 109 106 114 183 141 186 134 132 195 311 311 353 339 327 348 389 491 487 466 399 393 400 393 459 318 305 288 281 285 295 289 289 300 280 285 278 290 235 237 235 216
121 126 122 123 121 107 150 134 140 96 161 161 148 150 223 229 217 354 344 329 343 378 389 474 427 422 404 412 412 455 306 307 286 283 286 290 277 293 292 286 266 319 275 273 258 240 230
140 131 126 133 127 137 133 127 99 136 176 138 119 152 180 219 246 339 342 328 330 349 375 461 448 440 412 417 446 413 300 301 280 273 279 281 283 286 274 297 285 310 257 308 304 238 238
109 144 127 126 144 107 143 128 147 157 160 135 142 164 171 253 200 310 343 181 317 340 367 402 433 410 374 383 402 380 321 287 282 282 268 287 284 294 285 291 279 291 273 313 279 243 238
131 141 125 141 112 119 101 123 103 128 117 144 143 128 129 163 208 241 335 333 226 311 325 349 361 365 351 344 370 326 271 287 278 269 271 281 299 283 283 275 292 309 266 273 248 353 245
130 146 124 139 116 125 112 136 169 108 174 139 109 155 173 193 247 168 345 162 281 304 337 386 354 381 347 351 352 306 297 285 274 276 275 275 275 291 281 282 282 299 304 274 280 269 248
141 130 125 136 133 114 121 134 161 141 137 130 116 119 156 159 179 292 270 135 200 201 321 315 354 362 369 348 332 309 280 283 272 262 264 275 292 284 266 277 277 284 295 308 319 292 278
144 136 142 148 128 122 159 141 135 156 129 145 137 175 152 212 136 170 179 340 319 160 298 320 354 397 369 350 317 306 291 267 282 248 280 290 278 280 286 270 282 286 284 296 290 238 284
130 136 125 126 152 150 172 143 148 127 106 120 126 151 157 138 177 198 272 151 262 262 164 285 325 323 380 369 325 293 289 278 285 276 242 277 273 283 303 309 307 310 303 288 303 323 310
126 131 129 121 155 131 122 149 132 131 145 137 151 142 189 159 158 201 162 303 254 321 162 163 302 315 338 392 303 305 301 294 258 278 250 268 258 304 293 270 273 276 298 289 311 297 287
224 135 122 149 152 145 123 140 131 134 147 154 127 161 173 150 171 259 169 245 347 141 261 169 283 306 285 351 345 269 288 293 286 289 296 265 279 264 294 275 276 270 287 283 266 288 298
118 126 140 150 151 127 152 136 142 129 129 163 109 163 149 163 203 161 177 131 340 242 316 297 293 300 301 283 321 327 291 279 276 279 275 267 269 282 274 289 288 292 301 327 337 327 306
125 133 132 147 143 139 150 130 135 126 134 130 158 139 142 183 192 177 139 133 340 142 150 306 296 286 268 293 288 290 345 301 284 271 270 275 275 276 290 308 321 317 302 313 313 304 308
171 125 134 141 124 144 152 126 132 123 138 150 156 158 140 148 210 169 133 135 391 253 149 310 295 295 284 273 267 293 281 274 262 292 297 285 272 271 282 277 283 279 286 284 290 289 303
144 135 133 127 125 144 130 138 131 134 138 130 156 116 162 133 174 224 148 134 129 129 135 138 148 292 283 277 267 265 300 295 284 281 274 266 279 277 276 273 273 274 279 278 282 283 299
132 127 166 156 127 151 126 147 105 132 127 117 178 167 197 166 156 198 130 147 124 356 349 321 137 149 286 284 273 269 260 260 268 289 294 288 282 278 280 286 282 270 273 272 283 272 281
162 172 156 130 147 135 136 155 116 136 114 137 127 135 180 143 150 125 119 133 193 121 183 335 315 299 297 286 278 270 267 260 258 253 245 254 270 279 284 286 279 274 282 284 271 284 279
141 112 134 143 135 127 128 156 149 125 115 151 160 169 139 199 159 141 136 127 137 123 119 157 140 236 163 284 285 275 269 264 262 260 255 254 255 258 264 264 258 281 289 282 273 271 271
153 134 135 126 142 151 138 138 136 116 143 144 125 166 134 157 186 130 165 337 129 296 174 111 146 152 278 280 293 285 275 271 263 259 254 258 256 254 252 260 265 265 252 256 268 279 280
146 144 148 126 119 159 145 149 138 134 134 124 151 214 134 159 133 104 169 120 119 117 383 143 215 298 164 289 285 296 288 279 273 269 266 263 258 259 261 252 266 266 259 263 269 267 255
138 138 143 144 161 123 171 126 117 140 94 150 170 112 217 147 168 189 151 117 270 185 373 139 154 149 150 248 280 288 288 289 283 277 274 273 269 268 266 265 256 271 262 260 266 260 269
152 131 151 153 158 148 121 141 119 131 159 175 118 120 146 123 213 171 135 155 233 121 183 231 143 145 196 153 201 286 288 283 293 289 285 282 283 277 273 270 268 254 273 260 254 254 294
154 152 136 156 151 166 134 100 132 139 124 129 125 144 133 181 155 188 125 181 242 455 176 119 131 248 165 294 225 277 286 281 278 313 311 311 310 300 290 284 278 268 259 264 252 255 253
Wind_Speed
22 26 21 56 14 39 34 40 40 28 60 41 68 71 87 65 93 67 75 31 21 19 17 21 21 22 22 29 69 86 86 89 88 89 90 89 84 98 101 101 103 80 115 111 102 92 117
32 37 39 52 14 22 32 38 31 42 62 54 67 100 80 62 95 93 92 43 25 23 10 10 21 18 18 28 28 83 85 85 87 85 86 82 85 94 100 99 104 105 114 112 108 101 98
21 35 42 61 64 28 50 42 41 43 52 53 67 68 81 115 98 94 93 47 29 23 11 7 12 18 16 31 37 79 84 83 87 83 82 81 87 91 73 99 95 106 115 117 112 106 93
28 29 50 20 21 38 23 20 50 55 62 51 75 79 67 101 94 94 94 90 35 24 10 10 6 8 22 35 38 67 82 81 84 84 83 84 86 82 81 97 100 102 105 119 115 110 102
26 41 37 30 65 34 28 20 28 37 59 61 74 63 100 96 99 90 92 91 62 35 18 6 2 11 23 27 34 48 80 82 81 86 87 81 83 80 70 94 97 96 107 117 116 115 112
26 38 45 24 54 19 36 35 90 43 57 61 67 78 118 119 115 88 89 88 72 52 29 10 7 33 37 42 42 41 77 80 82 88 89 85 79 76 76 66 88 87 95 109 105 115 109
31 40 39 24 57 52 31 43 48 88 44 93 58 60 85 121 115 85 86 86 83 66 27 17 30 21 28 40 46 43 76 81 82 85 83 80 75 71 69 81 79 93 97 110 117 117 116
30 34 28 28 31 29 46 33 36 19 60 63 71 68 101 98 89 78 76 82 80 68 61 24 20 26 28 26 35 50 71 78 76 79 76 75 73 72 69 77 88 63 96 105 119 120 116
44 37 34 38 17 50 28 38 35 45 79 51 44 68 85 98 99 84 73 75 76 73 59 23 19 22 30 26 41 57 67 75 74 72 72 73 71 69 74 68 77 66 97 84 104 118 116
19 49 37 30 51 31 43 22 37 57 63 61 67 75 83 105 90 106 64 68 71 67 55 42 27 47 49 40 47 57 70 66 68 68 75 70 69 67 68 66 78 74 90 77 105 118 117
37 47 32 50 18 19 32 17 42 49 45 52 54 45 57 82 92 91 67 59 70 63 57 45 31 46 42 43 43 57 52 65 69 71 73 67 65 67 66 68 63 56 90 93 103 75 120
35 48 35 48 14 19 31 39 78 26 86 50 26 73 85 93 101 73 50 65 58 56 49 29 23 21 39 49 46 55 61 62 61 67 68 66 65 65 64 64 65 60 62 82 80 103 118
42 38 38 43 41 36 32 44 58 41 59 45 33 49 66 81 85 101 72 38 58 63 43 41 26 11 42 54 58 64 52 61 57 32 62 65 59 64 63 61 63 62 61 60 59 91 100
41 42 45 51 41 23 59 56 36 59 31 37 49 66 62 90 40 82 78 40 44 56 39 33 27 17 39 52 60 61 62 30 64 8 66 64 64 57 57 60 60 61 63 60 69 89 84
33 40 32 38 52 52 60 54 60 23 38 44 48 50 77 51 79 85 89 56 46 45 56 33 25 23 13 38 55 51 52 50 62 55 10 54 55 55 48 48 52 53 56 60 55 48 57
33 36 37 36 52 41 26 62 27 53 50 54 56 50 79 57 67 89 67 80 38 31 57 54 19 18 11 15 52 60 60 57 28 46 43 43 24 37 53 45 46 49 49 50 47 52 58
61 36 35 45 49 50 31 55 40 34 57 71 44 62 72 48 77 99 72 59 24 49 32 55 19 8 5 8 34 13 40 50 47 55 58 30 47 33 41 37 44 44 43 48 52 50 48
32 37 39 44 46 38 53 53 61 32 44 75 36 75 41 55 89 76 84 33 30 38 22 20 13 6 7 8 15 44 51 44 34 36 34 26 32 45 40 43 41 42 48 48 39 40 44
37 37 39 40 43 48 52 46 53 36 51 32 77 29 37 97 91 84 34 36 23 47 54 19 14 9 9 8 13 22 20 42 47 37 35 40 37 37 36 44 37 30 30 30 26 29 31
49 37 39 39 38 46 48 43 50 23 57 47 66 61 50 37 93 62 28 34 19 32 50 19 19 13 9 7 6 15 21 21 20 31 36 36 34 33 27 28 25 27 26 29 30 30 32
34 36 37 41 38 45 46 49 51 51 58 26 61 36 53 29 61 94 29 30 35 42 46 46 47 20 15 12 11 8 17 21 24 29 30 30 32 33 33 33 31 31 30 30 27 31 21
36 34 35 36 41 43 42 52 11 54 39 12 72 47 82 62 27 73 17 33 30 27 24 24 44 49 22 18 17 14 13 12 15 19 21 23 24 26 26 26 28 31 33 33 28 32 26
35 40 32 41 42 44 47 50 31 56 13 46 16 24 64 18 17 17 22 27 46 31 32 27 26 25 26 24 22 20 18 17 17 18 19 16 15 18 23 24 28 30 35 30 31 25 30
31 23 32 36 44 43 33 50 53 38 37 63 67 76 19 57 41 27 32 23 32 31 31 41 41 19 44 26 27 26 25 22 21 20 20 20 19 17 16 17 23 22 28 32 33 32 31
33 39 35 35 39 44 45 43 51 21 55 65 20 47 24 70 59 11 41 66 24 16 19 27 40 41 26 29 31 31 30 28 26 24 23 22 22 22 21 19 21 20 22 22 25 31 30
31 34 34 39 34 42 44 48 52 46 57 25 70 69 35 49 1 22 45 22 27 29 28 39 32 30 44 31 30 32 33 33 31 31 31 29 27 26 26 25 21 20 23 23 24 26 27
38 38 37 38 42 36 47 36 38 56 16 64 61 16 75 35 68 68 18 27 65 28 25 42 14 39 42 20 30 30 31 33 34 34 33 34 32 31 28 27 24 21 24 22 21 24 25
37 35 36 39 42 42 31 45 42 51 59 59 13 26 50 21 74 84 19 53 49 32 29 24 35 40 22 44 26 29 29 29 33 34 34 34 34 32 31 29 26 24 22 24 24 24 18
38 37 37 38 41 45 38 15 46 42 46 52 34 58 54 86 34 50 22 67 86 21 29 33 41 22 45 31 22 28 28 29 29 28 26 25 26 28 28 29 27 27 26 24 26 24 22
Wind_Direction
340 351 317 347 332 304 315 316 323 341 323 334 337 347 353 338 359 342 354 0 334 313 288 259 247 237 233 218 211 210 211 216 215 217 218 218 216 217 218 216 215 216 216 217 220 221 219
347 350 351 352 321 310 326 324 346 326 319 340 328 354 354 328 358 360 360 5 356 346 324 247 242 238 231 203 192 206 209 208 214 215 217 216 214 213 215 213 214 211 211 218 219 219 223
329 348 352 348 346 311 330 317 11 337 330 339 323 335 351 4 358 360 1 7 5 356 350 294 254 230 211 181 191 203 204 204 211 213 214 214 213 212 210 213 210 214 207 217 217 220 224
328 329 348 353 342 322 305 314 324 315 10 341 354 341 334 0 356 0 2 5 10 2 328 330 305 229 188 184 182 195 200 202 206 213 213 213 213 211 208 212 209 207 206 214 217 221 223
335 345 344 348 345 320 325 347 13 356 327 340 355 332 1 3 359 359 2 3 16 15 4 350 45 160 153 145 163 182 192 199 201 210 214 212 213 213 213 212 210 209 209 209 217 219 223
335 342 349 325 351 297 302 311 336 355 325 339 354 347 1 2 4 358 1 3 13 19 19 30 114 137 138 140 166 180 189 195 199 208 212 212 212 213 210 211 210 210 210 212 216 219 222
333 340 345 341 346 343 313 327 315 342 334 344 324 335 356 2 3 356 0 3 6 14 35 64 126 136 154 159 176 168 185 192 198 210 210 214 213 213 213 209 211 209 208 212 216 220 220
331 337 331 347 318 328 347 349 9 342 9 4 8 357 357 0 4 354 359 1 4 12 18 72 107 141 150 152 164 162 186 189 198 208 212 213 213 213 212 209 211 214 210 211 211 220 221
330 333 336 338 337 329 336 318 333 345 347 2 342 2 5 0 3 356 357 1 1 7 12 54 106 121 124 136 147 153 183 189 198 205 213 213 215 214 213 212 211 214 212 212 213 220 222
328 331 337 337 335 324 333 348 353 352 351 331 346 6 8 3 2 1 355 4 2 6 13 26 103 112 105 107 144 158 177 190 194 197 215 214 214 215 215 216 213 212 212 214 212 219 223
324 329 337 336 283 284 329 345 321 335 329 7 2 10 342 6 1 3 355 356 3 4 6 19 59 113 122 133 132 167 187 188 196 204 211 217 217 216 216 215 217 222 216 214 216 221 222
323 323 334 332 312 330 330 333 334 3 336 4 359 17 0 0 359 4 349 359 1 3 11 26 30 124 142 140 139 166 179 187 201 206 212 216 218 219 217 218 219 222 222 219 221 217 220
320 324 329 331 335 320 346 344 344 340 334 357 345 342 22 14 3 3 360 357 359 1 10 10 34 72 151 148 156 171 188 191 202 212 219 219 219 219 216 220 223 225 226 226 228 221 219
317 318 324 326 332 346 326 342 359 346 348 7 354 350 16 352 359 1 3 347 350 2 5 16 32 87 158 166 173 175 185 214 198 226 216 215 224 222 223 222 225 227 227 230 227 224 224
312 316 323 328 326 328 326 330 343 16 325 335 338 9 340 348 10 358 356 357 349 352 3 2 34 34 70 175 180 191 201 204 207 220 174 220 231 227 223 223 227 231 237 233 238 242 237
307 313 322 329 326 336 308 332 2 315 356 337 355 2 342 14 13 355 4 352 348 337 358 2 20 54 62 160 188 193 202 206 206 221 221 244 217 219 229 240 243 244 244 243 247 241 233
301 311 321 321 324 326 336 336 342 358 346 337 345 343 345 3 6 355 2 353 319 2 343 353 355 68 61 110 190 226 223 218 227 225 222 259 240 258 246 253 252 248 254 247 238 246 247
317 309 312 320 322 331 326 335 333 344 345 333 331 345 15 8 342 8 357 7 326 342 313 327 340 353 141 152 143 207 218 232 238 246 251 246 256 257 253 253 252 255 260 265 259 258 251
304 301 310 320 320 323 324 338 336 333 345 355 342 11 3 333 335 2 9 9 314 2 360 303 307 310 313 185 184 170 190 224 230 233 240 246 249 244 245 254 254 248 243 244 240 242 246
296 305 306 315 323 320 323 339 337 337 340 332 340 339 5 14 337 18 1 18 293 340 1 282 288 275 271 266 225 192 197 202 218 208 218 219 225 228 224 228 222 228 232 236 237 243 241
294 294 301 309 317 321 326 322 332 333 336 350 326 322 342 9 9 358 7 16 13 7 359 359 359 272 268 258 247 210 220 210 210 214 220 229 222 227 226 230 230 232 235 238 239 245 249
286 310 301 308 317 317 326 319 288 334 332 308 323 350 334 352 15 352 349 8 11 315 254 257 355 352 257 251 249 238 224 223 223 221 225 227 231 236 236 233 234 242 246 245 238 241 247
291 292 302 304 306 313 316 317 325 328 343 342 358 6 340 4 22 313 326 356 359 4 348 246 248 249 241 241 244 246 234 228 228 228 239 231 237 234 236 237 243 243 239 238 245 234 236
281 298 302 298 303 314 313 315 317 330 329 322 328 329 0 2 342 5 332 340 2 348 358 344 351 311 353 246 238 241 244 240 236 233 231 231 234 234 240 240 243 249 245 246 246 247 245
284 281 295 303 301 310 312 315 320 311 325 328 345 343 359 322 328 339 9 332 349 294 328 352 346 349 255 247 237 239 240 240 243 244 242 240 241 241 238 235 244 242 238 245 249 249 248
274 280 287 294 310 305 308 311 318 322 326 339 316 344 354 338 309 320 3 316 317 329 237 350 324 239 348 245 245 238 238 241 240 242 246 245 244 242 243 240 240 232 234 241 251 256 253
267 279 282 290 300 302 307 310 319 319 312 316 325 329 343 336 324 337 321 312 331 314 243 339 327 350 350 280 246 245 243 240 241 241 246 249 249 249 249 250 243 246 237 236 243 245 251
270 279 285 290 294 297 301 310 314 317 311 324 310 314 318 301 348 322 318 337 335 317 315 320 340 338 314 348 324 245 246 244 241 242 245 249 250 250 250 253 252 249 250 244 243 248 265
268 274 280 288 291 298 302 282 313 303 317 321 309 314 322 316 318 356 297 347 358 271 309 324 325 268 340 231 293 247 241 244 245 230 227 231 236 241 244 246 247 248 249 246 242 244 250